Regional Weather Roundup
Issued by NWS

Home | Current Version | Previous Version | Graphics & Text | Print | Product List | Glossary On
Versions: 1 2 3 4 5 6 7 8 9 10 11 12 13 14 15 16 17 18 19 20 21 22 23 24 25 26 27 28 29 30 31 32 33 34 35 36 37 38 39 40 41 42 43 44 45 46 47 48 49 50
000
ASUS43 KDMX 301907
RWRIA

WEATHER ROUNDUP FOR IOWA
NATIONAL WEATHER SERVICE DES MOINES IA
200 PM CDT TUE SEP 30 2014

NOTE: "FAIR" INDICATES FEW OR NO CLOUDS BELOW 12,000 FEET WITH NO
SIGNIFICANT WEATHER AND/OR OBSTRUCTIONS TO VISIBILITY.

* - THESE STATIONS ARE NOT NWS STATIONS...THUS NOT UNDER NWS
QUALITY CONTROL.  THEY ALSO DO NOT REPORT WEATHER SUCH
AS PRECIPITATION OR FOG.

IAZ001>003-012>014-020>022-031>034-043>046-302000-
   NORTHWEST IOWA

CITY           SKY/WX    TMP DP  RH WIND       PRES   REMARKS
CARROLL *      MOSUNNY   72  59  64 SE12G18   29.86F
CHEROKEE *     CLOUDY    66  61  82 SE12      29.83F
DENISON *      CLOUDY    73  61  64 VRB5      29.81F
LE MARS *      MOSUNNY   66  63  88 SE14G21   29.80F
ORANGE CITY *  MOSUNNY   66  61  82 SE8       29.81F
SHELDON *      PTSUNNY   64  57  77 SE14G23   29.81F
SIOUX CITY     LGT RAIN  65  62  90 S10       29.81S FOG
SPENCER        CLOUDY    62  55  77 SE17G23   29.87F
STORM LAKE *   MOSUNNY   64  57  77 SE16G22   29.86F
$$

IAZ055>058-069>071-079>083-090>094-302000-
   SOUTHWEST IOWA

CITY           SKY/WX    TMP DP  RH WIND       PRES   REMARKS
ATLANTIC *     CLOUDY    77  63  61 SE12G21   29.82F
AUDUBON *      SUNNY     75  61  60 SE9G16    29.86F
CLARINDA *     PTSUNNY   81  61  50 SE8G16    29.83F HX  81
COUNCIL BLFS * MOSUNNY   75  64  69 W5        29.82S
CRESTON *      SUNNY     79  63  57 SE12G21   29.86F HX  80
HARLAN  *      PTSUNNY   77  61  57 S10       29.86F
LAMONI         SUNNY     78  63  59 SE7       29.87F HX  80
RED OAK *      PTSUNNY   79  63  57 SE10G18   29.82F HX  80
SHENANDOAH *   PTSUNNY   81  59  47 S14G20    29.81F HX  81
$$

IAZ047>049-059>061-072>074-084-302000-
   CENTRAL IOWA

CITY           SKY/WX    TMP DP  RH WIND       PRES   REMARKS
AMES           PTSUNNY   65  56  72 E8        29.92F
ANKENY *       CLOUDY    64  59  82 E13       29.92F
CHARITON *     SUNNY     70  61  73 E13       29.91F
DES MOINES     PTSUNNY   64  57  78 E9        29.91F HAZE
GRINNELL*      PTSUNNY   63  54  72 E10G18    29.95F
KNOXVILLE *    MOSUNNY   66  57  72 SE10      29.91F
MARSHALLTOWN   CLOUDY    61  54  77 SE13      29.95F
PELLA *        MOSUNNY   64  57  77 E6        29.94F HAZE
PERRY *          N/A     68  57  68 SE15      29.89F
$$

IAZ004>006-015-016-023>025-035-036-302000-
   NORTH CENTRAL IOWA

CITY           SKY/WX    TMP DP  RH WIND       PRES   REMARKS
ALGONA *       PTSUNNY   61  54  77 SE12G23   29.91F
CLARION *      SUNNY     64  54  68 SE12G23   29.92F
ESTHERVILLE    CLOUDY    58  53  84 SE10G21   29.89F
FORT DODGE *   MOSUNNY   66  55  68 SE14G22   29.90F
MASON CITY     CLOUDY    57  51  80 SE13G22   29.97F
FOREST CITY *  CLOUDY    57  52  82 E15       29.94F
IOWA FALLS *   CLOUDY    61  54  77 E12       29.95F
$$

IAZ007>011-017>019-026>030-037>042-050>054-066-302000-
   NORTHEAST IOWA

CITY           SKY/WX    TMP DP  RH WIND       PRES   REMARKS
CHARLES CITY * CLOUDY    59  50  72 E13       29.98F
CLINTON *      PTSUNNY   57  46  67 E9        30.03F
DECORAH *      SUNNY     54  45  71 E8        30.00F
MONTICELLO *   CLOUDY    57  48  72 E7        30.01F
OELWEIN *      PTSUNNY   57  46  67 SE10      29.99F
WATERLOO       CLOUDY    58  49  72 SE10      29.97F
$$

IAZ064-065-067-068-078-302000-
   EAST CENTRAL IOWA

CITY           SKY/WX    TMP DP  RH WIND       PRES   REMARKS
IOWA CITY      CLOUDY    61  53  75 E10       29.99F
MT. PLEASANT * CLOUDY    64  54  68 E8        29.97F
MUSCATINE *    SUNNY     66  52  59 E9        29.98F
$$

IAZ062-063-075>077-085>089-095>099-302000-
   SOUTHEAST IOWA

CITY           SKY/WX    TMP DP  RH WIND       PRES   REMARKS
BURLINGTON     PTSUNNY   66  58  75 NE7       29.97F
FAIRFIELD *    SUNNY     64  55  72 E12       29.96F
FORT MADISON * MOSUNNY   72  55  56 E6        29.97F
KEOKUK *       PTSUNNY   66  59  77 E6        29.95F
OSKALOOSA *      N/A     68  55  64 E8G16     29.94F
CENTERVILLE *  SUNNY     68  61  77 E8        29.94F
OTTUMWA        MOSUNNY   66  56  70 SE13G22   29.94F
WASHINGTON *   PTSUNNY   64  54  68 E8G14     29.97F
$$

ABBREVIATIONS USED IN REMARKS
   TC - TEMPERATURES IN CELSIUS
  WCI - WIND CHILL INDEX
   HX - HEAT INDEX
  VSB - VISIBILITY
$$



USA.gov is the U.S. government's official web portal to all federal, state and local government web resources and services.